GSAT-20

operational
NORAD ID: 62028 Int'l Des: 2024-214 Owner: NSIL Country: IN
HEOCIRCULARGSOGEO

GSAT-20について

説明を読み込み中...

リアルタイム位置

3D地球を読み込み中...

次回通過

高度履歴

Altitude vs Time

uPlot chart will show altitude changes over time

軌道要素

1 62028U 24214A 26062.10074665 -.00000036 00000-0 00000+0 0 9995
2 62028 0.0882 265.6188 0001253 316.5430 42.9656 1.00272807 4831
Epoch: Mar 3, 2026 • Age: 20 hours

現在のステータス

高度 35782.6 km
速度 3.07 km/s
衛星直下点 -0.07°S, 68°E
打ち上げ日 Nov 18, 2024
運用期間 1.2 years
タイプ other

技術仕様

分類 Payload
質量 4700.00 kg
乾燥質量 2500.00 kg
総質量 4700.00 kg
長さ 4.00 m
直径 2.50 m
スパン 25.00 m
形状 Box + 2 Pan
製造者 ISAC
バスタイプ I4K
フェーズステータス In Orbit
所有者/国 NSIL/IN

大規模コンステレーション

Loading constellations...